Regional Weather Roundup
Issued by NWS San Angelo, TX

Home | Current Version | Previous Version | Text Only | Print | Product List | Glossary On
Versions: 1 2 3 4 5 6 7 8 9 10 11 12 13 14 15 16 17 18 19 20 21 22 23 24 25 26 27 28 29 30 31 32 33 34 35 36 37 38 39 40 41 42 43 44 45 46 47 48 49 50
000
ASUS44 KSJT 230010
RWRSJT
WEST CENTRAL TEXAS REGIONAL WEATHER ROUNDUP
NATIONAL WEATHER SERVICE SAN ANGELO TX
700 PM CDT TUE JUL 22 2014

NOTE: "FAIR" INDICATES FEW OR NO CLOUDS BELOW 12,000 FEET WITH NO
SIGNIFICANT WEATHER AND/OR OBSTRUCTIONS TO VISIBILITY.

TXZ049-054-064>066-071>073-076>078-098-099-113-114-127-128-139-140-
154-155-168>170-230100
...LOCATIONS ACROSS WEST CENTRAL TEXAS...

CITY           SKY/WX    TMP DP  RH WIND       PRES   REMARKS
SAN ANGELO     SUNNY     95  63  34 E13       30.03S
ABILENE        SUNNY     96  61  31 E9        30.05S
DYESS AFB      SUNNY     95  64  36 SE10      30.04S
JUNCTION       MOSUNNY   96  61  31 E7        30.02F
SWEETWATER     MOSUNNY   96  56  26 SE9G18    30.10S
BROWNWOOD      SUNNY     93  66  40 E12       30.04S
COLEMAN        CLEAR     94  59  31 SE8       30.05S
SONORA         SUNNY     95  59  30 SE14      30.07S
OZONA          FAIR      97  55  24 E6        30.06F
BRADY          SUNNY     93  66  40 E9        30.05S
$$

TEXAS PANHANDLE/OKLAHOMA PANHANDLE

CITY           SKY/WX    TMP DP  RH WIND       PRES   REMARKS
AMARILLO       LGT RAIN  85  63  47 S15G24    30.18R
BORGER         PTSUNNY   93  64  38 SE9       30.14S
CANADIAN       PTSUNNY   93  57  29 S10       30.09F
DALHART        SUNNY     91  60  35 S7        30.18F
DUMAS          PTCLDY    87  63  43 SE15G23   30.18R
GUYMON         NOT AVBL
HEREFORD       PTCLDY    88  67  48 SE15      30.18R THUNDER
PAMPA          MOCLDY    86  61  43 SE8       30.17R
PERRYTON       CLOUDY    82  65  54 SE7       30.14R
$$

SOUTHERN PANHANDLE/SOUTH PLAINS/ROLLING PLAINS

CITY           SKY/WX    TMP DP  RH WIND       PRES   REMARKS
LUBBOCK        CLOUDY    84  64  50 CALM      30.14F
SNYDER         MOSUNNY   96  60  29 SE8       30.07F
CHILDRESS      SUNNY     97  60  29 SE8       30.07R
SEMINOLE       CLOUDY    91  54  28 E10       30.14S
$$

PERMIAN BASIN

CITY           SKY/WX    TMP DP  RH WIND       PRES   REMARKS
MIDLAND        CLOUDY    92  61  35 E8        30.08F
ODESSA         PTSUNNY   93  56  28 E15       30.10S
WINK           MOSUNNY   98  53  22 E15       30.04S
$$

FAR WEST/SOUTHWEST MOUNTAINS/TRANS PECOS

CITY           SKY/WX    TMP DP  RH WIND       PRES   REMARKS
ALPINE         MOCLDY    90  54  29 E10       30.21S
DRYDEN           N/A    100  59  25 E17G24    30.01S
EL PASO        TSTM      82  58  43 E16G26    30.11R
FORT STOCKTON  MOSUNNY   94  58  29 E18       30.07S
GUADALUPE PASS MOSUNNY   85  51  31 NE21      30.26S
MARFA          PTSUNNY   84  59  42 S8        30.21S
PECOS          CLEAR     98  56  24 E13G21    30.02S
$$

DALLAS/FORT WORTH METROPLEX

CITY           SKY/WX    TMP DP  RH WIND       PRES   REMARKS
DFW AIRPORT    MOSUNNY   94  70  45 E8        30.01S
FTW MEACHAM    MOSUNNY   95  67  39 E12       30.00S
DAL-EXECUTIVE  SUNNY     93  70  46 E9        30.01F
GRAND PRAIRIE  SUNNY     93  68  43 E9        30.02F
ADDISON        MOSUNNY   91  68  46 NE9       30.03S
MESQUITE       CLEAR     91  68  46 NE6       30.02F
LANCASTER      CLEAR     92  66  42 E6        30.02S
$$

NORTH CENTRAL TEXAS

CITY           SKY/WX    TMP DP  RH WIND       PRES   REMARKS
SHRMAN/DENISON CLEAR     91  69  48 E7        30.05F
GAINESVILLE    MOSUNNY   92  70  49 E9        30.06S
BRIDGEPORT     CLEAR     92  66  42 E5        30.05S
DENTON         MOSUNNY   93  69  45 E6        30.02S
WAXAHACHIE     CLEAR     92  65  41 NE5       30.02S
GRANBURY       PTCLDY    96  66  36 SE5       30.02S
$$

WESTERN NORTH TEXAS

CITY           SKY/WX    TMP DP  RH WIND       PRES   REMARKS
WICHITA FALLS  MOSUNNY   94  69  44 SE9       30.02S
VERNON         PTCLDY    98  63  31 SE7       30.04R
BRECKENRIDGE   CLEAR     99  59  25 E8        30.01R
COMANCHE       SUNNY     93  65  39 SE8       30.04S
$$

CENTRAL AND SOUTH CENTRAL TEXAS

CITY           SKY/WX    TMP DP  RH WIND       PRES   REMARKS
AUSTIN/BERGSTM MOSUNNY   94  68  42 NE13      29.97F
WACO           MOSUNNY   95  70  44 E5        29.98F
HILLSBORO      CLEAR     94  67  40 E6        30.01S
TEMPLE         SUNNY     93  70  46 E8        30.00S
KILLEEN-GRAY   MOSUNNY   93  64  38 E5        30.01S
FORT HOOD      SUNNY     95  67  39 CALM      30.00F
GEORGETOWN     MOSUNNY   93  68  43 S3        29.98F
LAGO VISTA     FAIR      92  64  39 SE6       30.03S
SAN MARCOS     SUNNY     95  64  36 CALM      29.98F
NEW BRAUNFELS  SUNNY     95  63  34 VRB3      29.96F
RANDOLPH AFB   SUNNY     95  60  31 SE9       29.98F
SAN ANTONIO    MOSUNNY   94  65  38 SE6       29.98F
STINSON        SUNNY     95  66  38 SE9       29.95F
PLEASANTON     NOT AVBL
LA GRANGE      SUNNY     95  73  48 E5        29.95F
GIDDINGS       CLEAR     92  70  49 CALM      30.02S
$$

EAST TEXAS

CITY           SKY/WX    TMP DP  RH WIND       PRES   REMARKS
PARIS          SUNNY     88  68  51 E8        30.05F
CLARKSVILLE    CLEAR     89  69  51 E5        30.05S
TYLER          SUNNY     89  69  51 E7        30.03S
LONGVIEW       SUNNY     88  68  51 E5        30.03S
PALESTINE      NOT AVBL
NACOGDOCHES    SUNNY     88  70  55 E6        30.02S
$$

TEXAS HILL COUNTRY AND EDWARDS PLATEAU

CITY           SKY/WX    TMP DP  RH WIND       PRES   REMARKS
LLANO          CLEAR     95  68  41 E9        30.04S
HORSESHOE BAY  FAIR      94  62  34 E6        30.01S
KERRVILLE      SUNNY     94  60  31 E9        30.04R
FREDERICKSBRG  MOSUNNY   94  59  30 E5        30.04S
ROCKSPRINGS    PTCLDY    93  61  33 SE12      30.08R
HONDO          SUNNY     93  66  40 SE8       30.00S
UVALDE         CLEAR     96  64  35 SE7       29.98S
DEL RIO        SUNNY     99  63  30 E13G18    29.95S
$$

SOUTHEAST TEXAS

CITY           SKY/WX    TMP DP  RH WIND       PRES   REMARKS
COLLEGE STN    SUNNY     92  72  51 E6        29.98F
CALDWELL       CLEAR     91  72  52 CALM      30.02S
CROCKETT       CLEAR     91  77  62 NE7       30.03S
BRENHAM        SUNNY     92  70  48 CALM      29.99S
HUNTSVILLE     SUNNY     91  74  57 N5        29.99F
CONROE         SUNNY     91  76  61 CALM      29.98F
HOUSTON BUSH   MOSUNNY   92  74  55 NE7       29.96F
HOUSTON HOBBY  PTSUNNY   84  73  69 SE6       29.97R
PERLAND        MOSUNNY   83  73  72 S6        29.99S THUNDER
WHARTON        CLEAR     91  73  55 S9        29.97S
$$

THE UPPER TEXAS COAST

CITY           SKY/WX    TMP DP  RH WIND       PRES   REMARKS
ORANGE         PTCLDY    87  72  59 NE6       30.00R
PORT ARTHUR    PTSUNNY   84  77  79 CALM      29.98R
GALVESTON      MOSUNNY   87  76  69 S10       29.98S
ANGLETON       MOSUNNY   88  76  67 S9        29.98S
BAY CITY       CLEAR     90  76  62 S8        29.97S
$$

TEXAS COASTAL BEND, RIO GRANDE PLAINS DEEP SOUTH TEXAS

CITY           SKY/WX    TMP DP  RH WIND       PRES   REMARKS
VICTORIA       SUNNY     92  74  55 S13       29.96F
BEEVILLE       FAIR      93  74  54 SE15G33   29.95S
ROCKPORT       SUNNY     87  77  72 SE14      29.96F
PORT ARANSAS   CLEAR     85  78  79 SE10      29.97F
PORT LAVACA    CLEAR     89  74  61 S9        29.96F
CORPUS CHRISTI MOSUNNY   90  75  61 SE16      29.96S
KINGSVILLE NAS MOSUNNY   90  78  68 SE16G24   29.95S
COTULLA        MOSUNNY   99  65  32 SE10      29.92F
LAREDO         SUNNY    102  64  28 SE12      29.93S
BROWNSVILLE    MOSUNNY   88  77  69 SE16G23   29.96S
PORT ISABEL    SUNNY     88  77  69 SE18      29.96S HAZE
HEBBRONVILLE   CLEAR     99  59  27 E8        29.94R
MCALLEN        SUNNY     97  69  40 SE18      29.91S
WESLACO        SUNNY     95  66  39 SE16      29.92S
FALFURRIAS     CLEAR     88  72  57 E17G23    29.93R
EDINBURG       CLEAR     98  65  34 SE17      29.91S
$$


USA.gov is the U.S. government's official web portal to all federal, state and local government web resources and services.